DW1546 Weather Reports


time (UTC)temp
C
wind
direction
speed
KPH
gust
KPH
rain 1hr
cm
rain 24hr
cm
rain mn
cm
humidity
%
barometer
mb
20260505124511 18 238 4.8 0.0 0.00 0.00 0.00 55 1012.7
20260505123005 18 257 3.2 0.0 0.00 0.00 0.00 57 1012.5
20260505121630 17 288 0.0 0.0 0.00 0.00 0.00 59 1012.4
20260505120057 17 222 1.6 0.0 0.00 0.00 0.00 60 1012.5
20260505114553 16 221 1.6 0.0 0.00 0.00 0.00 60 1012.3
20260505113049 16 222 1.6 0.0 0.00 0.00 0.00 64 1012.2
20260505111546 15 222 1.6 0.0 0.00 0.00 0.00 64 1012.1
20260505101539 15 209 0.0 0.0 0.00 0.00 0.00 67 1011.7
20260505100034 15 209 0.0 0.0 0.00 0.00 0.00 66 1011.4
20260505094532 15 223 1.6 0.0 0.00 0.00 0.00 66 1011.2
20260505093037 15 223 1.6 0.0 0.00 0.00 0.00 66 1011.2
20260505091530 15 225 1.6 0.0 0.00 0.00 0.00 66 1011.1
20260505090027 15 209 1.6 0.0 0.00 0.00 0.00 65 1011.3
20260505084528 15 221 0.0 0.0 0.00 0.00 0.00 65 1011.3
20260505083029 15 221 3.2 0.0 0.00 0.00 0.00 64 1011.3
20260505081530 15 221 0.0 0.0 0.00 0.00 0.00 64 1011.2
20260505080026 15 188 1.6 0.0 0.00 0.00 0.00 64 1011.2
20260505074525 15 225 1.6 0.0 0.00 0.00 0.00 64 1011.2
20260505073035 15 227 0.0 0.0 0.00 0.00 0.00 65 1011.2
20260505071525 15 227 0.0 0.0 0.00 0.00 0.00 66 1011.1
20260505070024 15 227 0.0 0.0 0.00 0.00 0.00 66 1010.8
20260505064525 15 227 0.0 0.0 0.00 0.00 0.00 65 1010.8
20260505063017 16 227 0.0 0.0 0.00 0.00 0.00 63 1011.1
20260505061516 16 227 0.0 0.0 0.00 0.00 0.00 62 1011.0
20260505060024 16 227 0.0 0.0 0.00 0.00 0.00 61 1011.1
20260505054518 17 227 0.0 0.0 0.00 0.00 0.00 60 1011.2
20260505053007 17 227 0.0 0.0 0.00 0.00 0.00 59 1011.3
20260505051507 17 227 0.0 0.0 0.00 0.00 0.00 58 1011.3
20260505041501 17 204 1.6 0.0 0.00 0.00 0.00 56 1011.1
20260505040103 17 203 1.6 0.0 0.00 0.00 0.00 56 1011.2
20260505034559 17 203 0.0 0.0 0.00 0.00 0.00 55 1011.1
20260505033115 18 203 0.0 0.0 0.00 0.00 0.00 54 1011.2
20260505031557 18 203 0.0 0.0 0.00 0.00 0.00 53 1011.0
20260505030057 18 203 0.0 0.0 0.00 0.00 0.00 52 1011.0
20260505024604 18 203 0.0 0.0 0.00 0.00 0.00 52 1011.1
20260505023106 18 203 0.0 0.0 0.00 0.00 0.00 51 1011.2
20260505021557 18 203 0.0 0.0 0.00 0.00 0.00 50 1011.0
20260505020056 18 203 0.0 0.0 0.00 0.00 0.00 49 1011.1
20260505014555 19 203 0.0 0.0 0.00 0.00 0.00 48 1011.0
20260505013054 19 203 0.0 0.0 0.00 0.00 0.00 47 1010.8
20260505011559 20 203 0.0 0.0 0.00 0.00 0.00 46 1010.7
20260505010058 20 203 0.0 0.0 0.00 0.00 0.00 45 1010.4
20260505004558 20 203 0.0 0.0 0.00 0.00 0.00 44 1010.4
20260505003053 21 203 0.0 0.0 0.00 0.00 0.00 43 1010.2
20260505001552 21 209 0.0 0.0 0.00 0.00 0.00 42 1010.3
20260505000053 21 221 1.6 0.0 0.00 0.00 0.00 41 1010.2
20260504234614 21 188 1.6 0.0 0.00 0.00 0.00 40 1010.1
20260504233052 21 221 1.6 0.0 0.00 0.00 0.00 39 1010.2
20260504231555 22 223 1.6 0.0 0.00 0.00 0.00 39 1010.1
20260504230049 22 234 4.8 0.0 0.00 0.00 0.00 38 1010.1
20260504224557 22 171 6.4 0.0 0.00 0.00 0.00 37 1010.2
20260504223048 22 211 3.2 0.0 0.00 0.00 0.00 36 1010.0
20260504221559 23 187 3.2 0.0 0.00 0.00 0.00 35 1009.9
20260504220052 23 189 1.6 0.0 0.00 0.00 0.00 35 1009.8
20260504214551 23 155 4.8 0.0 0.00 0.00 0.00 34 1010.0
20260504213052 23 167 3.2 0.0 0.00 0.00 0.00 35 1010.1
20260504211544 23 199 6.4 0.0 0.00 0.00 0.00 34 1010.2
20260504210053 23 252 4.8 0.0 0.00 0.00 0.00 35 1010.2
20260504204619 23 186 3.2 0.0 0.00 0.00 0.00 34 1010.2
20260504203042 23 218 6.4 0.0 0.00 0.00 0.00 34 1010.2
20260504201540 23 237 4.8 0.0 0.00 0.00 0.00 35 1010.5
20260504200041 24 254 4.8 0.0 0.00 0.00 0.00 33 1010.6
20260504194637 24 225 1.6 0.0 0.00 0.00 0.00 33 1010.9
20260504193034 23 285 3.2 0.0 0.00 0.00 0.00 34 1011.2
20260504191531 23 205 8.0 0.0 0.00 0.00 0.00 35 1011.4
20260504190035 23 183 4.8 0.0 0.00 0.00 0.00 34 1011.8
20260504184528 23 251 6.4 0.0 0.00 0.00 0.00 34 1012.1
20260504183029 23 131 3.2 0.0 0.00 0.00 0.00 34 1012.2
20260504181525 23 296 4.8 0.0 0.00 0.00 0.00 34 1012.4
20260504180023 22 246 6.4 0.0 0.00 0.00 0.00 34 1012.6
20260504174520 22 243 4.8 0.0 0.00 0.00 0.00 35 1012.7
20260504173020 22 198 3.2 0.0 0.00 0.00 0.00 32 1012.8
20260504171533 22 117 4.8 0.0 0.00 0.00 0.00 33 1013.0